Theta_e
310 307 315 318 320 322 315 311 317 320 321 315 308 315 318 319 321 318 319 321 322 321 322 323 324 325 324 322 322 323 320 315 320 322 319 320 319 324 321 323 325 322 322 324
308 309 308 315 317 314 309 309 311 321 318 319 314 315 320 321 321 320 318 320 320 319 320 322 323 324 323 322 322 322 320 317 320 321 319 318 323 322 322 319 318 325 328 327
307 309 308 314 317 316 308 311 319 316 312 310 318 319 319 321 321 320 318 318 319 320 321 318 321 322 323 323 326 329 322 316 319 321 321 320 322 321 321 322 321 323 324 326
306 307 309 313 315 317 310 311 318 316 319 319 318 318 318 320 321 319 318 319 317 319 319 318 318 318 318 318 325 319 316 320 318 318 319 320 321 322 325 334 326 334 331 335
304 306 309 311 313 316 312 310 318 314 317 315 317 316 318 321 321 320 320 319 318 316 317 317 317 316 317 317 318 317 313 318 319 319 318 319 323 323 330 335 336 337 337 338
304 305 308 310 312 316 312 315 313 314 317 316 318 318 321 321 318 319 318 317 317 318 316 314 313 312 312 313 314 313 314 314 314 316 317 323 325 327 333 334 336 336 340 334
303 304 305 309 313 315 309 310 311 314 320 317 318 320 320 320 320 319 318 317 317 318 315 314 313 313 311 311 311 310 312 313 315 317 324 331 325 332 333 335 338 336 338 337
303 303 304 308 310 314 313 308 312 315 318 317 320 321 320 317 315 317 318 319 317 310 312 313 313 314 313 314 317 321 310 311 317 322 328 329 334 332 335 335 334 336 335 332
302 303 303 305 309 313 313 311 307 311 315 316 320 321 319 317 316 316 317 317 314 312 310 313 317 317 316 317 316 324 324 316 321 331 335 337 331 334 333 332 335 333 332 332
302 302 303 304 307 312 313 309 309 312 317 317 317 318 317 315 315 315 313 317 316 313 312 315 315 316 315 318 318 321 326 328 331 332 335 335 332 334 333 336 329 332 331 328
301 302 303 303 306 309 312 311 309 308 311 313 314 316 316 315 313 316 314 315 314 315 317 316 316 315 317 325 325 331 329 329 329 329 332 332 332 335 334 327 328 332 331 328
301 301 302 303 305 308 312 309 311 310 309 309 314 314 316 316 315 312 311 313 314 314 315 317 317 321 319 323 326 324 326 326 327 328 330 326 325 330 329 329 331 333 331 330
301 301 301 303 304 307 311 309 309 309 313 313 311 314 315 315 316 316 314 310 312 315 312 314 317 319 319 321 324 326 326 326 325 327 327 326 326 330 329 331 330 329 329 330
301 301 301 302 303 307 311 310 309 311 311 315 313 314 314 316 314 315 315 314 310 309 309 311 314 319 315 317 317 315 314 324 324 324 323 322 322 324 329 330 329 330 328 330
301 301 301 302 303 308 311 309 308 308 311 314 311 312 312 313 313 313 313 312 307 310 312 312 315 312 313 311 310 312 321 324 325 323 318 321 323 326 329 327 326 328 328 327
300 301 301 302 304 309 307 307 310 305 310 312 312 310 310 313 313 311 310 311 308 309 311 312 311 310 314 316 315 312 312 316 320 319 320 318 324 328 325 324 324 326 327 327
300 301 301 302 305 308 308 309 311 310 308 311 312 311 310 312 311 308 308 309 310 311 311 312 313 313 313 312 317 314 314 313 312 313 322 330 328 328 326 324 327 325 325 325
300 301 302 306 309 306 306 306 310 311 312 312 313 313 311 311 311 313 306 309 309 309 310 310 313 311 311 315 312 312 319 324 322 324 323 324 324 323 323 324 325 326 326 325
301 302 307 306 307 306 306 308 310 312 313 315 313 313 315 309 309 310 311 310 314 309 314 312 312 312 315 313 321 325 326 327 325 322 323 324 324 323 324 325 325 325 327 326
302 306 306 310 308 306 312 312 312 312 312 311 311 307 313 310 313 313 313 309 313 311 311 309 313 313 313 320 321 321 322 324 325 325 326 323 323 323 322 323 322 324 325 326
306 308 309 309 309 312 311 314 313 314 313 309 309 309 310 307 316 317 317 316 317 321 318 317 316 318 321 320 321 320 320 322 323 322 321 320 320 321 323 323 322 324 325 324
307 308 310 310 311 313 314 316 312 315 316 311 311 310 307 308 310 318 317 320 318 320 317 321 324 321 322 320 320 320 319 320 322 322 324 323 321 322 321 322 323 323 323 324
308 309 311 311 312 314 315 319 315 314 312 313 311 313 310 309 312 316 316 319 319 319 322 324 322 318 322 319 319 322 323 324 322 323 321 322 323 323 324 324 324 324 323 323
310 311 312 313 314 314 312 313 312 311 313 314 313 312 311 310 315 316 321 317 322 325 326 326 321 323 324 322 323 324 324 322 321 321 322 322 323 326 326 325 325 324 324 323
311 311 314 311 309 311 312 310 311 312 313 315 314 313 313 315 316 314 315 324 325 326 326 324 322 319 322 323 323 322 322 320 320 323 323 324 324 325 324 324 322 322 322 323
310 312 313 316 317 318 315 315 316 313 316 314 315 318 319 319 318 322 323 324 323 322 318 317 316 319 319 320 320 321 321 319 319 318 319 320 321 322 322 323 322 321 322 321
311 313 313 314 316 318 319 316 318 317 317 317 318 321 322 319 322 323 321 323 322 318 315 314 316 319 319 318 319 320 319 316 318 317 316 317 320 320 320 320 320 321 320 322
Wind_Speed
17 19 24 25 29 33 20 6 3 2 9 3 1 0 2 6 7 5 3 3 2 2 1 2 3 1 3 8 2 1 2 5 1 4 5 5 5 2 4 4 6 4 2 6
16 18 18 23 23 25 12 2 3 4 1 2 3 6 5 2 6 5 5 3 1 2 0 2 2 4 6 7 5 2 2 2 3 8 6 5 1 3 3 2 3 5 3 6
19 16 18 18 18 18 12 2 3 4 4 1 2 4 4 6 6 2 5 4 2 2 3 6 4 7 4 7 4 9 7 3 6 6 6 2 6 6 6 3 3 3 6 6
20 18 17 15 17 17 8 1 3 2 3 4 3 2 3 5 8 6 5 5 4 1 4 3 3 3 6 5 5 4 4 4 6 6 6 5 7 9 8 5 6 5 5 6
18 18 16 12 15 16 2 0 2 4 3 3 5 4 5 5 5 3 7 1 1 3 5 5 2 0 1 5 3 3 2 3 3 4 8 7 5 11 8 7 5 7 6 8
17 17 12 9 11 10 2 2 2 3 3 3 2 2 3 3 6 5 2 3 2 1 6 7 8 8 5 7 7 3 5 5 2 5 3 6 6 6 5 3 4 4 5 6
17 17 15 5 8 9 4 2 2 2 4 2 4 2 2 4 6 4 5 4 1 3 2 3 4 3 7 9 12 7 6 6 4 3 2 3 6 3 2 4 6 6 6 7
16 16 16 8 7 9 7 4 1 1 3 3 5 1 2 6 6 3 4 3 3 5 3 4 6 6 7 5 2 3 8 4 3 4 4 4 3 3 2 1 7 6 5 5
15 15 15 12 8 9 9 10 7 2 1 5 1 0 1 2 3 6 4 5 7 5 3 3 3 3 3 6 10 5 6 4 4 2 2 2 4 1 2 2 5 5 4 3
15 14 14 15 10 9 13 6 9 3 2 4 4 4 3 2 1 2 4 6 7 3 2 2 3 4 3 3 3 5 4 3 2 2 3 5 5 3 3 1 6 3 3 3
16 15 13 14 12 10 13 7 9 6 3 5 4 4 4 1 2 2 4 4 3 3 3 3 3 3 3 2 3 1 2 1 1 0 2 5 1 3 5 7 4 4 4 4
16 15 14 14 10 12 11 5 1 6 4 6 8 18 22 16 14 5 2 3 2 4 3 0 1 1 1 3 3 1 1 5 4 7 5 5 5 6 5 3 7 4 3 4
16 15 14 13 11 15 12 10 12 5 2 6 5 10 21 23 31 29 4 3 5 2 4 4 2 3 3 2 5 2 0 2 2 2 4 7 6 7 7 3 5 7 2 4
15 15 14 15 13 13 12 13 10 5 3 3 6 5 11 10 9 21 30 16 3 4 2 2 2 2 3 3 3 3 4 4 4 5 8 6 9 8 9 7 6 5 3 2
15 15 14 14 15 11 13 15 18 15 2 3 4 18 34 12 18 23 27 20 4 2 1 2 3 2 1 1 1 4 5 7 4 5 6 5 7 7 4 3 4 4 1 5
14 14 14 15 13 9 5 3 7 21 12 2 4 6 6 6 5 10 13 13 3 3 4 4 3 4 2 2 4 6 4 4 8 7 5 8 5 2 3 1 1 1 5 5
13 13 15 14 11 16 5 3 6 11 16 2 4 5 5 5 4 2 3 5 3 3 3 3 4 3 5 2 5 5 12 10 8 11 5 4 4 4 6 5 5 4 5 6
11 13 12 10 11 11 13 19 8 8 6 2 2 4 5 2 1 2 1 3 2 1 3 1 2 1 2 3 8 6 5 8 7 6 6 4 7 7 6 6 5 3 1 5
11 10 8 7 4 4 5 4 7 13 4 2 3 2 4 5 2 2 3 2 1 0 3 3 4 2 4 7 3 5 5 4 6 4 4 5 6 7 7 7 7 5 1 6
10 10 4 2 6 6 3 5 2 2 2 1 3 1 3 3 2 2 3 1 2 2 4 2 3 4 3 2 5 6 5 6 6 2 2 4 5 8 2 2 3 2 6 6
5 4 3 4 9 4 1 2 3 3 3 3 4 7 4 2 1 2 0 3 1 1 4 4 2 2 3 3 4 5 6 3 6 6 6 3 3 3 4 4 4 6 6 3
3 6 5 6 3 1 2 4 2 4 5 3 4 5 5 4 3 2 1 3 1 4 1 1 1 3 4 4 5 4 5 6 6 6 7 2 3 4 5 2 1 4 1 5
6 1 2 3 2 5 5 7 4 3 3 3 2 3 4 1 2 2 3 2 4 1 2 1 2 4 2 4 5 7 6 3 4 4 8 5 2 3 1 2 3 4 3 7
3 4 4 3 3 4 5 4 3 5 3 2 3 2 3 2 3 3 3 3 2 1 2 1 2 2 4 3 7 7 3 4 6 7 8 4 2 2 1 1 3 5 11 14
2 1 2 5 5 4 5 5 3 5 2 2 1 2 3 1 3 2 2 1 4 1 2 2 3 4 5 7 7 7 6 5 4 5 5 2 3 5 8 5 9 2 6 4
2 2 3 3 4 3 3 2 4 2 2 1 1 3 3 2 1 2 1 1 3 2 2 2 1 2 2 3 3 4 2 1 2 3 3 5 4 1 6 9 15 16 11 6
2 2 2 5 6 4 3 2 2 2 2 2 3 4 1 1 2 1 2 2 1 2 1 1 2 1 3 3 3 2 3 3 3 6 11 10 5 8 14 7 13 12 9 6
Wind_Direction
330 330 344 345 347 351 358 2 344 334 350 33 27 2 227 293 319 346 328 108 111 126 142 328 331 27 283 328 195 98 51 130 130 231 301 273 177 96 121 110 292 236 188 269
340 333 337 346 354 0 347 353 265 352 345 84 335 306 300 289 339 324 10 16 45 179 199 345 220 1 356 9 63 108 187 17 24 351 354 347 211 263 158 121 83 227 186 269
343 342 342 343 350 354 349 7 343 325 35 50 129 353 296 327 307 281 349 305 17 45 40 17 357 354 13 358 58 50 85 112 150 192 216 225 305 299 307 154 165 256 229 280
342 341 343 343 347 349 339 47 267 187 316 331 352 303 333 345 1 351 332 348 49 131 50 34 33 349 332 333 22 47 86 206 186 231 239 222 233 263 293 240 220 191 244 231
338 341 339 344 337 342 300 253 19 353 288 310 342 352 19 352 330 256 317 183 112 95 134 158 267 171 185 252 311 85 24 264 182 255 264 258 263 286 254 241 236 262 274 285
332 336 333 337 332 344 328 332 337 113 282 348 25 172 348 324 348 296 289 269 312 188 211 188 212 202 197 213 223 230 175 164 126 259 282 341 319 250 212 248 220 203 239 239
323 330 329 319 324 316 296 331 352 83 265 199 211 351 334 314 311 258 296 350 217 283 3 88 51 334 257 250 253 185 187 165 146 258 43 244 259 345 230 245 249 228 276 276
316 322 326 297 298 294 277 260 273 189 261 228 296 254 288 315 306 272 285 297 224 312 33 35 16 338 354 316 281 312 217 131 190 166 188 286 293 290 280 278 284 217 243 296
308 312 320 302 271 307 262 266 240 245 167 242 162 277 309 264 292 324 282 309 312 42 77 76 131 245 262 315 326 83 74 91 118 115 163 255 231 213 295 89 289 237 233 300
298 303 309 312 269 303 255 260 210 244 235 263 179 204 198 204 109 260 299 325 339 20 71 119 174 244 231 266 270 324 347 14 172 212 185 267 260 141 153 43 245 277 213 242
291 294 298 307 272 272 239 261 229 209 230 277 234 225 196 342 105 188 286 5 337 24 66 143 223 177 249 313 266 265 199 84 314 111 48 285 183 122 169 217 271 254 234 205
285 286 290 300 265 263 247 249 177 228 210 254 284 277 260 240 218 170 271 220 242 208 90 296 128 304 355 171 280 128 338 185 203 179 221 209 280 243 282 219 228 244 224 179
278 279 285 286 261 250 264 244 269 286 265 278 254 251 273 261 243 225 188 259 217 212 181 162 191 236 133 205 242 286 25 124 218 340 293 247 248 269 257 252 258 290 329 262
274 277 279 281 269 248 252 226 247 228 290 268 280 294 279 273 238 211 216 225 121 111 96 146 172 194 177 222 234 184 215 138 225 255 285 291 267 235 247 272 275 299 328 286
267 275 275 274 271 253 237 243 245 233 229 282 281 304 287 271 242 235 217 211 156 129 95 133 217 226 133 240 52 239 182 206 189 233 249 217 253 241 153 221 258 267 12 336
268 269 270 277 248 238 181 306 248 225 198 277 305 287 281 282 243 191 177 191 138 152 159 203 235 257 140 248 236 249 217 222 191 274 266 224 274 41 86 245 322 22 354 350
266 267 267 270 261 194 189 192 115 140 191 237 299 292 267 274 163 112 113 131 171 145 162 197 196 229 144 212 247 276 287 285 270 245 200 224 166 182 151 143 102 48 355 348
262 263 273 258 203 218 256 247 266 218 211 217 260 272 325 195 150 110 95 108 51 346 191 75 188 22 144 248 249 276 253 271 254 290 211 209 135 132 148 144 129 117 45 19
251 270 170 140 195 209 239 169 223 205 233 227 191 252 272 348 18 99 46 92 135 325 192 226 122 217 222 227 260 268 265 237 278 2 117 145 146 156 162 156 144 125 209 76
258 162 189 210 212 194 188 154 135 154 231 237 231 210 272 20 352 21 100 41 185 180 238 111 173 241 287 288 242 244 251 221 168 146 181 170 193 192 135 27 5 225 167 148
188 189 230 231 155 159 64 184 162 172 256 213 228 189 217 278 128 252 207 165 152 201 249 162 219 279 250 237 287 304 318 298 219 254 269 262 6 133 110 145 193 230 214 156
218 298 254 147 171 209 182 189 223 218 227 220 182 209 188 251 156 131 311 148 114 242 203 129 304 273 307 276 276 296 318 321 322 347 326 75 133 153 134 151 347 281 209 15
288 150 262 159 173 187 215 186 205 221 219 222 189 198 176 241 94 65 91 145 222 94 71 196 242 313 333 281 281 263 253 309 271 320 5 30 178 138 189 229 266 235 3 292
242 176 184 233 179 238 213 216 208 233 203 235 184 168 164 184 125 154 161 230 107 3 86 314 271 259 188 332 277 297 354 7 359 348 342 330 227 214 272 12 70 268 288 289
270 203 232 214 235 255 249 235 254 249 267 53 352 66 117 57 140 181 103 204 46 248 235 204 195 230 262 258 261 274 303 340 342 329 340 212 245 291 307 335 55 68 276 252
273 229 275 302 290 279 279 258 256 235 144 56 6 84 65 29 80 86 123 48 172 193 212 205 210 260 265 297 303 272 0 20 348 0 352 5 18 284 150 64 55 41 25 327
268 268 287 271 268 274 293 267 331 328 107 125 95 58 34 65 64 43 160 140 167 183 154 216 237 259 310 314 339 57 84 46 20 7 16 23 46 104 79 62 353 20 333 293